sat.trackr.live / text

‹ back to catalog

STARLINK-5264

NORAD 54206 · 2022-141BB

PAYLOAD ACTIVE UNKNOWN

§ Identity

Operator
Country
US
Launch date
2022-10-28
Launch site
AFWTR
Launch vehicle
Mass (kg)
RCS (m²)

Purposes: comms

External: N2YO · Heavens-Above · Gunter

§ Orbital elements

Epoch: 2026-05-24T22:47:27.919680Z

Period
95.44 min
Inclination
53.2126°
Eccentricity
0.0001387
Mean motion
15.08835246 rev/d
Perigee alt
538.8 km
Apogee alt
540.7 km
Semi-major
6,917.9 km
B*
1.0824e-5
RAAN
336.6120°
Arg perigee
88.1183°
Mean anomaly
271.9968°
Rev number
19,800

§ Raw data

STARLINK-52641 54206U 22141BB  26144.94962870 -.00000116  00000+0  10824-4 0  99962 54206  53.2126 336.6120 0001387  88.1183 271.9968 15.08835246198009

JSON: /api/v1/satellites/54206 · /tle

For live sub-satellite position, see the globe view (requires WebGL).

§ Visibility from observer

Set your observer location to see the next 7 days of passes ≥ 10°. The values pass through the URL so the page stays shareable.

No JS? Fill the form by hand. The geolocation button needs JavaScript.